| time (UTC) | temp F | wind direction | speed knots | gust knots | rain 1hr in | rain 24hr in | rain mn in | humidity % | barometer mb |
| 20260510220056 | 65 | 333 | 5.2 | 10.4 | 0.00 | 0.00 | 0.00 | 40 | 1020.9 |
| 20260510214551 | 65 | 309 | 4.3 | 7.8 | 0.00 | 0.00 | 0.00 | 46 | 1020.8 |
| 20260510213054 | 65 | 303 | 4.3 | 6.1 | 0.00 | 0.00 | 0.00 | 43 | 1020.5 |
| 20260510211549 | 65 | 316 | 4.3 | 8.7 | 0.00 | 0.00 | 0.00 | 42 | 1020.5 |
| 20260510210108 | 65 | 330 | 3.5 | 10.4 | 0.00 | 0.00 | 0.00 | 39 | 1020.8 |
| 20260510204553 | 65 | 326 | 6.1 | 11.3 | 0.00 | 0.00 | 0.00 | 39 | 1020.8 |
| 20260510203053 | 66 | 4 | 3.5 | 7.8 | 0.00 | 0.00 | 0.00 | 41 | 1021.1 |
| 20260510201554 | 66 | 56 | 3.5 | 8.7 | 0.00 | 0.00 | 0.00 | 42 | 1021.3 |
| 20260510200053 | 65 | 44 | 3.5 | 7.8 | 0.00 | 0.00 | 0.00 | 43 | 1021.5 |
| 20260510194552 | 65 | 309 | 1.7 | 7.0 | 0.00 | 0.00 | 0.00 | 49 | 1021.4 |
| 20260510193103 | 65 | 288 | 2.6 | 6.1 | 0.00 | 0.00 | 0.00 | 44 | 1021.4 |
| 20260510191554 | 64 | 56 | 2.6 | 7.0 | 0.00 | 0.00 | 0.00 | 40 | 1021.4 |
| 20260510190057 | 63 | 29 | 1.7 | 6.1 | 0.00 | 0.00 | 0.00 | 41 | 1021.4 |
| 20260510184552 | 63 | 0 | 2.6 | 7.0 | 0.00 | 0.00 | 0.00 | 42 | 1021.4 |
| 20260510183055 | 62 | 54 | 1.7 | 8.7 | 0.00 | 0.00 | 0.00 | 43 | 1021.5 |
| 20260510181555 | 62 | 131 | 2.6 | 7.8 | 0.00 | 0.00 | 0.00 | 43 | 1021.4 |
| 20260510180058 | 63 | 333 | 4.3 | 9.6 | 0.00 | 0.00 | 0.00 | 43 | 1021.0 |
| 20260510174555 | 63 | 59 | 6.1 | 13.0 | 0.00 | 0.00 | 0.00 | 42 | 1021.1 |
| 20260510173057 | 64 | 314 | 2.6 | 8.7 | 0.00 | 0.00 | 0.00 | 43 | 1021.3 |
| 20260510171557 | 62 | 57 | 3.5 | 7.8 | 0.00 | 0.00 | 0.00 | 45 | 1021.3 |
| 20260510170100 | 62 | 360 | 4.3 | 11.3 | 0.00 | 0.00 | 0.00 | 44 | 1021.1 |
| 20260510164601 | 62 | 28 | 3.5 | 9.6 | 0.00 | 0.00 | 0.00 | 44 | 1021.3 |
| 20260510163054 | 61 | 319 | 4.3 | 8.7 | 0.00 | 0.00 | 0.00 | 46 | 1021.0 |
| 20260510161554 | 62 | 58 | 5.2 | 10.4 | 0.00 | 0.00 | 0.00 | 42 | 1021.0 |
| 20260510160100 | 62 | 72 | 1.7 | 7.8 | 0.00 | 0.00 | 0.00 | 49 | 1021.1 |
| 20260510154617 | 62 | 354 | 2.6 | 8.7 | 0.00 | 0.00 | 0.00 | 47 | 1020.9 |
| 20260510153056 | 61 | 39 | 3.5 | 8.7 | 0.00 | 0.00 | 0.00 | 49 | 1020.8 |
| 20260510151554 | 60 | 335 | 2.6 | 7.8 | 0.00 | 0.00 | 0.00 | 50 | 1020.8 |
| 20260510150054 | 60 | 33 | 3.5 | 7.8 | 0.00 | 0.00 | 0.00 | 46 | 1020.8 |
| 20260510144554 | 60 | 46 | 3.5 | 8.7 | 0.00 | 0.00 | 0.00 | 48 | 1021.1 |
| 20260510143057 | 60 | 142 | 2.6 | 7.8 | 0.00 | 0.00 | 0.00 | 49 | 1020.9 |
| 20260510141554 | 59 | 48 | 2.6 | 7.0 | 0.00 | 0.00 | 0.00 | 53 | 1020.6 |
| 20260510140056 | 59 | 31 | 1.7 | 6.1 | 0.00 | 0.00 | 0.00 | 55 | 1020.4 |
| 20260510134602 | 59 | 63 | 3.5 | 7.8 | 0.00 | 0.00 | 0.00 | 54 | 1020.0 |
| 20260510133059 | 59 | 327 | 1.7 | 8.7 | 0.00 | 0.00 | 0.00 | 57 | 1019.8 |
| 20260510131603 | 58 | 352 | 1.7 | 6.1 | 0.00 | 0.00 | 0.00 | 58 | 1019.3 |
| 20260510130059 | 58 | 316 | 2.6 | 7.8 | 0.00 | 0.00 | 0.00 | 60 | 1019.0 |
| 20260510124613 | 57 | 319 | 2.6 | 7.0 | 0.00 | 0.00 | 0.00 | 61 | 1018.9 |
| 20260510123059 | 57 | 338 | 0.9 | 3.5 | 0.00 | 0.00 | 0.00 | 63 | 1018.8 |
| 20260510121600 | 56 | 342 | 0.9 | 5.2 | 0.00 | 0.00 | 0.00 | 65 | 1018.8 |
| 20260510120055 | 54 | 309 | 1.7 | 3.5 | 0.00 | 0.00 | 0.00 | 69 | 1018.8 |
| 20260510114602 | 54 | 314 | 0.9 | 4.3 | 0.00 | 0.00 | 0.00 | 71 | 1018.4 |
| 20260510113102 | 54 | 314 | 0.0 | 3.5 | 0.00 | 0.00 | 0.00 | 69 | 1018.0 |
| 20260510111624 | 55 | 330 | 0.0 | 2.6 | 0.00 | 0.00 | 0.00 | 66 | 1017.7 |
| 20260510110056 | 56 | 51 | 0.9 | 2.6 | 0.00 | 0.00 | 0.00 | 64 | 1017.5 |
| 20260510104610 | 57 | 306 | 1.7 | 4.3 | 0.00 | 0.00 | 0.00 | 66 | 1017.4 |
| 20260510103055 | 57 | 309 | 1.7 | 5.2 | 0.00 | 0.00 | 0.00 | 67 | 1017.2 |
| 20260510101554 | 57 | 359 | 1.7 | 4.3 | 0.00 | 0.00 | 0.00 | 68 | 1016.9 |
| 20260510100100 | 58 | 315 | 2.6 | 6.1 | 0.00 | 0.00 | 0.00 | 72 | 1017.0 |
| 20260510094553 | 58 | 41 | 1.7 | 7.0 | 0.00 | 0.00 | 0.00 | 75 | 1016.5 |
| 20260510093053 | 58 | 333 | 1.7 | 5.2 | 0.00 | 0.00 | 0.00 | 84 | 1016.2 |
| 20260510091558 | 58 | 309 | 0.9 | 2.6 | 0.00 | 0.00 | 0.00 | 84 | 1015.7 |
| 20260510084559 | 58 | 0 | 0.0 | 1.7 | 0.00 | 0.00 | 0.00 | 85 | 1015.2 |
| 20260510083059 | 58 | 41 | 0.0 | 2.6 | 0.00 | 0.00 | 0.00 | 85 | 1015.1 |
| 20260510081553 | 58 | 0 | 0.0 | 1.7 | 0.00 | 0.00 | 0.00 | 85 | 1015.0 |
| 20260510074557 | 58 | 0 | 0.0 | 0.9 | 0.00 | 0.00 | 0.00 | 88 | 1015.0 |
| 20260510073057 | 59 | 0 | 0.0 | 0.0 | 0.00 | 0.00 | 0.00 | 86 | 1015.0 |
| 20260510071554 | 59 | 0 | 0.0 | 1.7 | 0.00 | 0.00 | 0.00 | 85 | 1014.6 |
| 20260510070105 | 60 | 327 | 0.0 | 1.7 | 0.00 | 0.00 | 0.00 | 86 | 1014.5 |
| 20260510064609 | 60 | 57 | 0.0 | 2.6 | 0.00 | 0.00 | 0.00 | 87 | 1014.6 |
| 20260510063054 | 60 | 307 | 1.7 | 3.5 | 0.00 | 0.00 | 0.00 | 87 | 1015.2 |
| 20260510061553 | 60 | 297 | 0.9 | 1.7 | 0.00 | 0.00 | 0.00 | 86 | 1015.1 |
| 20260510060055 | 61 | 0 | 0.0 | 6.1 | 0.00 | 0.00 | 0.00 | 83 | 1014.5 |
| 20260510054552 | 61 | 58 | 0.9 | 3.5 | 0.00 | 0.00 | 0.00 | 84 | 1014.5 |
| 20260510053054 | 62 | 307 | 0.9 | 2.6 | 0.00 | 0.00 | 0.00 | 82 | 1014.3 |
| 20260510051601 | 62 | 0 | 0.0 | 0.9 | 0.00 | 0.00 | 0.00 | 81 | 1014.1 |
| 20260510050055 | 62 | 0 | 0.9 | 3.5 | 0.00 | 0.00 | 0.00 | 81 | 1013.7 |
| 20260510044604 | 62 | 311 | 2.6 | 3.5 | 0.00 | 0.00 | 0.00 | 82 | 1013.6 |
| 20260510043053 | 62 | 304 | 1.7 | 2.6 | 0.00 | 0.00 | 0.00 | 79 | 1013.2 |
| 20260510041604 | 63 | 0 | 0.0 | 0.9 | 0.00 | 0.00 | 0.00 | 77 | 1012.9 |
| 20260510040056 | 64 | 0 | 0.0 | 0.0 | 0.00 | 0.00 | 0.00 | 75 | 1012.4 |
| 20260510034559 | 65 | 0 | 0.0 | 0.0 | 0.00 | 0.00 | 0.00 | 74 | 1012.4 |
| 20260510033054 | 66 | 60 | 0.0 | 0.0 | 0.00 | 0.00 | 0.00 | 69 | 1012.5 |
| 20260510031557 | 66 | 98 | 0.0 | 0.9 | 0.00 | 0.00 | 0.00 | 67 | 1012.3 |
| 20260510030057 | 67 | 0 | 0.0 | 1.7 | 0.00 | 0.00 | 0.00 | 66 | 1012.2 |
| 20260510024553 | 68 | 289 | 1.7 | 3.5 | 0.00 | 0.01 | 0.00 | 64 | 1012.0 |
| 20260510023050 | 68 | 323 | 2.6 | 5.2 | 0.00 | 0.01 | 0.00 | 63 | 1011.6 |
| 20260510021552 | 68 | 306 | 2.6 | 7.0 | 0.00 | 0.01 | 0.00 | 61 | 1011.2 |
| 20260510020051 | 70 | 314 | 6.1 | 13.9 | 0.00 | 0.01 | 0.00 | 60 | 1010.6 |
| 20260510014556 | 71 | 326 | 7.8 | 13.0 | 0.00 | 0.09 | 0.00 | 60 | 1010.4 |
| 20260510013103 | 73 | 0 | 0.9 | 1.7 | 0.00 | 0.09 | 0.00 | 54 | 1009.1 |
| 20260510011555 | 73 | 177 | 0.9 | 2.6 | 0.00 | 0.09 | 0.00 | 52 | 1008.8 |
| 20260510010055 | 74 | 184 | 0.9 | 3.5 | 0.00 | 0.09 | 0.00 | 50 | 1008.9 |
| 20260510004553 | 76 | 159 | 2.6 | 4.3 | 0.00 | 0.32 | 0.00 | 48 | 1008.9 |
| 20260510003059 | 78 | 136 | 1.7 | 4.3 | 0.00 | 0.32 | 0.00 | 46 | 1008.8 |
| 20260510001557 | 80 | 170 | 2.6 | 6.1 | 0.00 | 0.32 | 0.00 | 44 | 1008.8 |
| 20260510000114 | 80 | 197 | 2.6 | 5.2 | 0.00 | 0.32 | 0.00 | 43 | 1008.8 |
| 20260509234605 | 80 | 233 | 0.9 | 5.2 | 0.00 | 0.37 | 0.00 | 43 | 1008.8 |
| 20260509233057 | 78 | 244 | 4.3 | 8.7 | 0.00 | 0.37 | 0.00 | 42 | 1008.8 |
| 20260509231610 | 79 | 225 | 4.3 | 10.4 | 0.00 | 0.37 | 0.00 | 41 | 1008.9 |
| 20260509230105 | 80 | 287 | 4.3 | 9.6 | 0.00 | 0.37 | 0.00 | 40 | 1008.9 |
| 20260509224554 | 80 | 242 | 4.3 | 8.7 | 0.00 | 0.37 | 0.00 | 44 | 1008.7 |
| 20260509223051 | 79 | 250 | 5.2 | 8.7 | 0.00 | 0.37 | 0.00 | 42 | 1008.8 |
| 20260509221549 | 81 | 214 | 6.1 | 10.4 | 0.00 | 0.37 | 0.00 | 39 | 1008.8 |